• In Uzbekistan
  • List of Countries
  • For 7 days
  • Water Temperature
  • Satellite Maps
  • Weather Map
  • Weather Widgets
  • user-avatar
    Login

    Hourly Weather Balapur

    Today, 15 December, Friday

    Time Temperature Precipitation Wind Pressure Humidity
    00:00 +25°C° 0 mm 2 mps 737 mmHg 49%
    01:00 +24°C° 0 mm 2 mps 737 mmHg 51%
    02:00 +24°C° 0 mm 2 mps 737 mmHg 52%
    03:00 +23°C° 0 mm 2 mps 737 mmHg 53%
    04:00 +23°C° 0 mm 2 mps 737 mmHg 55%
    05:00 +21°C° 0 mm 2 mps 737 mmHg 56%
    06:00 +23°C° 0 mm 2 mps 738 mmHg 54%
    07:00 +24°C° 0 mm 3 mps 738 mmHg 51%
    08:00 +25°C° 0 mm 3 mps 739 mmHg 49%
    09:00 +27°C° 0 mm 3 mps 739 mmHg 43%
    10:00 +29°C° 0 mm 3 mps 739 mmHg 37%
    11:00 +31°C° 0 mm 3 mps 739 mmHg 32%
    12:00 +31°C° 0 mm 3 mps 738 mmHg 30%
    13:00 +33°C° 0 mm 3 mps 738 mmHg 29%
    14:00 +34°C° 0 mm 3 mps 737 mmHg 27%
    15:00 +32°C° 0 mm 2 mps 737 mmHg 29%
    16:00 +31°C° 0 mm 2 mps 738 mmHg 30%
    17:00 +30°C° 0 mm 2 mps 738 mmHg 32%
    18:00 +29°C° 0 mm 2 mps 738 mmHg 32%
    19:00 +28°C° 0 mm 3 mps 738 mmHg 33%
    20:00 +27°C° 0 mm 3 mps 739 mmHg 34%
    21:00 +27°C° 0 mm 3 mps 739 mmHg 35%
    22:00 +26°C° 0 mm 3 mps 739 mmHg 35%
    23:00 +25°C° 0 mm 3 mps 739 mmHg 36%

    Tomorrow, 16 December, Saturday

    Time Temperature Precipitation Wind Pressure Humidity
    00:00 +25°C° 0 mm 3 mps 739 mmHg 36%
    01:00 +25°C° 0 mm 3 mps 738 mmHg 37%
    02:00 +24°C° 0 mm 3 mps 738 mmHg 37%
    03:00 +24°C° 0 mm 3 mps 738 mmHg 38%
    04:00 +22°C° 0 mm 3 mps 738 mmHg 39%
    05:00 +22°C° 0 mm 3 mps 738 mmHg 39%
    06:00 +24°C° 0 mm 3 mps 738 mmHg 39%
    07:00 +23°C° 0 mm 4 mps 739 mmHg 38%
    08:00 +25°C° 0 mm 4 mps 740 mmHg 38%
    09:00 +27°C° 0 mm 4 mps 740 mmHg 34%
    10:00 +29°C° 0 mm 4 mps 740 mmHg 30%
    11:00 +33°C° 0 mm 4 mps 740 mmHg 26%
    12:00 +33°C° 0 mm 4 mps 739 mmHg 25%
    13:00 +34°C° 0 mm 4 mps 738 mmHg 24%
    14:00 +34°C° 0 mm 3 mps 738 mmHg 22%
    15:00 +33°C° 0 mm 3 mps 738 mmHg 25%
    16:00 +31°C° 0 mm 3 mps 738 mmHg 27%
    17:00 +30°C° 0 mm 3 mps 738 mmHg 29%
    18:00 +29°C° 0 mm 3 mps 738 mmHg 30%
    19:00 +28°C° 0 mm 3 mps 739 mmHg 32%
    20:00 +26°C° 0 mm 3 mps 739 mmHg 33%
    21:00 +26°C° 0 mm 3 mps 740 mmHg 35%
    22:00 +25°C° 0 mm 3 mps 740 mmHg 36%
    23:00 +25°C° 0 mm 3 mps 740 mmHg 38%

    Day after tomorrow, 17 December, Sunday

    Time Temperature Precipitation Wind Pressure Humidity
    00:00 +24°C° 0 mm 2 mps 740 mmHg 39%
    01:00 +24°C° 0 mm 2 mps 740 mmHg 40%
    02:00 +24°C° 0 mm 2 mps 740 mmHg 41%
    03:00 +23°C° 0 mm 2 mps 740 mmHg 43%
    04:00 +21°C° 0 mm 2 mps 740 mmHg 45%
    05:00 +21°C° 0 mm 2 mps 740 mmHg 46%
    06:00 +22°C° 0 mm 3 mps 740 mmHg 46%
    07:00 +24°C° 0 mm 3 mps 741 mmHg 45%
    08:00 +23°C° 0 mm 4 mps 742 mmHg 45%
    09:00 +26°C° 0 mm 4 mps 742 mmHg 40%
    10:00 +29°C° 0 mm 5 mps 742 mmHg 35%
    11:00 +32°C° 0 mm 5 mps 742 mmHg 31%
    12:00 +32°C° 0 mm 5 mps 741 mmHg 29%
    13:00 +33°C° 0 mm 4 mps 740 mmHg 27%
    14:00 +33°C° 0 mm 4 mps 739 mmHg 26%
    15:00 +31°C° 0 mm 3 mps 739 mmHg 28%
    16:00 +30°C° 0 mm 3 mps 739 mmHg 31%
    17:00 +29°C° 0 mm 2 mps 739 mmHg 33%
    18:00 +28°C° 0 mm 2 mps 739 mmHg 35%
    19:00 +27°C° 0 mm 2 mps 740 mmHg 36%
    20:00 +26°C° 0 mm 2 mps 741 mmHg 38%
    21:00 +26°C° 0 mm 2 mps 741 mmHg 40%
    22:00 +25°C° 0 mm 2 mps 741 mmHg 41%
    23:00 +24°C° 0 mm 2 mps 741 mmHg 43%

    18 December, Monday

    Time Temperature Precipitation Wind Pressure Humidity
    00:00 +24°C° 0 mm 2 mps 740 mmHg 44%
    01:00 +23°C° 0 mm 2 mps 740 mmHg 46%
    02:00 +23°C° 0 mm 2 mps 740 mmHg 47%
    03:00 +21°C° 0 mm 2 mps 740 mmHg 48%
    04:00 +21°C° 0 mm 2 mps 740 mmHg 49%
    05:00 +20°C° 0 mm 2 mps 740 mmHg 50%
    06:00 +21°C° 0 mm 2 mps 740 mmHg 47%
    07:00 +23°C° 0 mm 2 mps 741 mmHg 45%
    08:00 +24°C° 0 mm 2 mps 742 mmHg 43%
    09:00 +26°C° 0 mm 2 mps 742 mmHg 38%
    10:00 +28°C° 0 mm 2 mps 742 mmHg 33%
    11:00 +29°C° 0 mm 3 mps 742 mmHg 29%
    12:00 +30°C° 0 mm 3 mps 741 mmHg 27%
    13:00 +31°C° 0 mm 3 mps 740 mmHg 25%
    14:00 +31°C° 0 mm 3 mps 739 mmHg 24%
    15:00 +30°C° 0 mm 2 mps 739 mmHg 25%
    16:00 +30°C° 0 mm 2 mps 739 mmHg 27%
    17:00 +29°C° 0 mm 2 mps 739 mmHg 29%
    18:00 +27°C° 0 mm 2 mps 739 mmHg 30%
    19:00 +26°C° 0 mm 3 mps 740 mmHg 32%
    20:00 +25°C° 0 mm 3 mps 740 mmHg 33%
    21:00 +24°C° 0 mm 2 mps 740 mmHg 34%
    22:00 +23°C° 0 mm 2 mps 740 mmHg 35%
    23:00 +23°C° 0 mm 2 mps 740 mmHg 35%

    19 December, Tuesday

    Time Temperature Precipitation Wind Pressure Humidity
    00:00 +22°C° 0 mm 1 mps 740 mmHg 36%
    01:00 +21°C° 0 mm 1 mps 740 mmHg 36%
    02:00 +21°C° 0 mm 1 mps 739 mmHg 36%
    03:00 +20°C° 0 mm 1 mps 739 mmHg 36%
    04:00 +20°C° 0 mm 1 mps 739 mmHg 36%
    05:00 +20°C° 0 mm 1 mps 739 mmHg 36%
    06:00 +20°C° 0 mm 1 mps 740 mmHg 34%
    07:00 +21°C° 0 mm 1 mps 741 mmHg 32%
    08:00 +22°C° 0 mm 1 mps 741 mmHg 30%
    09:00 +24°C° 0 mm 2 mps 741 mmHg 26%
    10:00 +27°C° 0 mm 2 mps 741 mmHg 21%
    11:00 +29°C° 0 mm 2 mps 741 mmHg 17%
    12:00 +30°C° 0 mm 2 mps 741 mmHg 16%
    13:00 +30°C° 0 mm 3 mps 740 mmHg 14%
    14:00 +31°C° 0 mm 3 mps 739 mmHg 12%
    15:00 +30°C° 0 mm 2 mps 739 mmHg 14%
    16:00 +29°C° 0 mm 2 mps 739 mmHg 16%
    17:00 +28°C° 0 mm 2 mps 739 mmHg 18%
    18:00 +27°C° 0 mm 2 mps 740 mmHg 19%
    19:00 +25°C° 0 mm 2 mps 740 mmHg 19%
    20:00 +24°C° 0 mm 2 mps 741 mmHg 20%
    21:00 +23°C° 0 mm 2 mps 741 mmHg 21%
    22:00 +23°C° 0 mm 2 mps 741 mmHg 22%
    23:00 +22°C° 0 mm 1 mps 741 mmHg 23%

    20 December, Wednesday

    Time Temperature Precipitation Wind Pressure Humidity
    00:00 +21°C° 0 mm 1 mps 740 mmHg 24%
    01:00 +21°C° 0 mm 1 mps 740 mmHg 24%
    02:00 +20°C° 0 mm 1 mps 739 mmHg 25%
    03:00 +20°C° 0 mm 1 mps 739 mmHg 26%
    04:00 +20°C° 0 mm 1 mps 739 mmHg 26%
    05:00 +19°C° 0 mm 1 mps 739 mmHg 27%
    06:00 +20°C° 0 mm 1 mps 740 mmHg 26%
    07:00 +21°C° 0 mm 1 mps 741 mmHg 25%
    08:00 +22°C° 0 mm 1 mps 741 mmHg 25%
    09:00 +24°C° 0 mm 1 mps 741 mmHg 22%
    10:00 +26°C° 0 mm 2 mps 741 mmHg 18%
    11:00 +29°C° 0 mm 2 mps 741 mmHg 15%
    12:00 +30°C° 0 mm 2 mps 741 mmHg 14%
    13:00 +30°C° 0 mm 2 mps 740 mmHg 13%
    14:00 +31°C° 0 mm 2 mps 739 mmHg 12%
    15:00 +30°C° 0 mm 2 mps 739 mmHg 14%
    16:00 +29°C° 0 mm 2 mps 739 mmHg 17%
    17:00 +28°C° 0 mm 2 mps 739 mmHg 19%
    18:00 +27°C° 0 mm 2 mps 739 mmHg 20%
    19:00 +26°C° 0 mm 2 mps 740 mmHg 21%
    20:00 +25°C° 0 mm 2 mps 741 mmHg 21%
    21:00 +24°C° 0 mm 2 mps 740 mmHg 23%
    22:00 +23°C° 0 mm 2 mps 740 mmHg 24%
    23:00 +23°C° 0 mm 1 mps 740 mmHg 26%
    Show more